Regional Weather Roundup
Issued by NWS

Home | Current Version | Previous Version | Text Only | Print | Product List | Glossary Off
Versions: 1 2 3 4 5 6 7 8 9 10 11 12 13 14 15 16 17 18 19 20 21 22 23 24 25 26 27 28 29 30 31 32 33 34 35 36 37 38 39 40 41 42 43 44 45 46 47 48 49 50

000
ASUS43 KOAX 202302
RWRNE

WEATHER ROUNDUP FOR NEBRASKA
NATIONAL WEATHER SERVICE OMAHA NE
600 PM CDT WED AUG 20 2014

NOTES: SATELLITE DATA IS BEING USED TO AUGMENT CLOUD COVER ABOVE
       12000 FEET.
       "FAIR" INDICATES FEW OR NO CLOUDS BELOW 12,000 FEET WITH NO
       SIGNIFICANT WEATHER AND/OR OBSTRUCTIONS TO VISIBILITY.

  * THESE STATIONS DO NOT REPORT WEATHER SUCH AS RAIN...SNOW OR FOG.

NEZ001>004-019>022-054>056-210000-
NEBRASKA PANHANDLE

CITY           SKY/WX    TMP DP  RH WIND       PRES   REMARKS
SCOTTSBLUFF    MOSUNNY   92  48  22 NW14      29.81S
ALLIANCE       SUNNY     93  46  19 W14       29.79F
CHADRON        SUNNY     93  47  20 W16       29.73F
KIMBALL        CLOUDY    84  46  26 W12       29.88R
SIDNEY         CLOUDY    78  54  43 S13G23    29.87R THUNDER
$$

NEZ057>060-069>072-079>082-210000-
SOUTHWEST NEBRASKA

CITY           SKY/WX    TMP DP  RH WIND       PRES   REMARKS
NORTH PLATTE   SUNNY     90  68  48 NW7       29.73F HX  94
IMPERIAL       SUNNY     92  56  29 N5        29.78F HX  90
LEXINGTON      MOSUNNY   91  71  53 SE12      29.73S HX  97
MCCOOK         MOSUNNY   96  61  31 S8        29.72F HX  96
OGALLALA       MOSUNNY   90  53  27 E5        29.77S
$$

NEZ005>010-023>029-035>040-094-210000-
NORTH CENTRAL NEBRASKA

CITY           SKY/WX    TMP DP  RH WIND       PRES   REMARKS
VALENTINE      SUNNY     90  60  36 S12       29.72S
AINSWORTH      SUNNY     86  67  54 S13       29.74F
BROKEN BOW     SUNNY     93  69  45 S17G26    29.73F HX  98
O`NEILL        PTSUNNY   86  74  68 S10       29.74S HX  94
ORD            MOSUNNY   89  71  55 S13G23    29.72F HX  95
THEDFORD       SUNNY     90  64  43 S6        29.77S HX  91
$$

NEZ041-046>049-061>064-073>077-083>087-210000-
SOUTH CENTRAL NEBRASKA

CITY           SKY/WX    TMP DP  RH WIND       PRES   REMARKS
GRAND ISLAND   MOSUNNY   89  74  60 SE15      29.75S HX  98
AURORA         MOSUNNY   91  73  57 SE13      29.76S HX  99
HASTINGS       PTSUNNY   91  68  46 S15       29.74F HX  95
HEBRON         SUNNY     89  66  46 S8        29.75F HX  91
HOLDREGE       PTSUNNY   91  67  45 S10       29.74S HX  94
KEARNEY *      MOSUNNY   90  72  55 SE13      29.74S HX  96
$$

NEZ011>018-030>034-042>045-210000-
NORTHEAST NEBRASKA

CITY           SKY/WX    TMP DP  RH WIND       PRES   REMARKS
NORFOLK        PTSUNNY   88  68  51 S18G26    29.75R HX  91
ALBION         MOSUNNY   88  71  56 S15G22    29.75S HX  93
BLAIR          PTSUNNY   88  74  64 SE14      29.78F HX  97
COLUMBUS *     SUNNY     88  72  58 S9        29.76S HX  94
FREMONT        MOSUNNY   90  73  57 SE18G24   29.76F HX  98
TEKAMAH        PTSUNNY   87  75  67 SE16G24   29.76F HX  96
WAYNE          PTSUNNY   81  76  84 SE7       29.76R
$$

NEZ050>053-065>068-078-088>093-210000-
SOUTHEAST NEBRASKA

CITY           SKY/WX    TMP DP  RH WIND       PRES   REMARKS
LINCOLN        SUNNY     93  68  43 S17G28    29.76S HX  97
OMAHA EPPLEY   PTSUNNY   88  74  63 SE21      29.78F HX  96
BEATRICE       SUNNY     94  70  45 S14G20    29.77S HX 100
FALLS CITY     MOSUNNY   93  72  50 SE10      29.79F HX 101
NEBRASKA CITY  SUNNY     89  71  55 SE15G21   29.79F HX  94
PLATTSMOUTH    MOSUNNY   90  72  55 SE13G18   29.79S HX  96
$$

NEZ044-045-051>053-067-210000-
OMAHA AREA

CITY           SKY/WX    TMP DP  RH WIND       PRES   REMARKS
OMAHA EPPLEY   PTSUNNY   88  74  63 SE21      29.78F HX  96
BLAIR          PTSUNNY   88  74  64 SE14      29.78F HX  97
FREMONT        MOSUNNY   90  73  57 SE18G24   29.76F HX  98
MILLARD        MOSUNNY   91  75  60 SE17      29.77S HX 101
OFFUTT AFB     MOSUNNY   88  78  71 SE16G23   29.78F HX 101
PLATTSMOUTH    MOSUNNY   90  72  55 SE13G18   29.79S HX  96
WAHOO          FAIR      92  65  39 S12       29.77R HX  94
$$



USA.gov is the U.S. government's official web portal to all federal, state and local government web resources and services.